This is the latest recevied weather packets stored in our database for station/object K5KHP. If no packets are shown the sender has not sent any weather packets the latest 10 day(s).
| Time | Temp. | Humidity | Pressure | Rain* | Wind** | Luminosity | Snow |
|---|---|---|---|---|---|---|---|
| 1778119776 | 17.78° C | 80% | 1015.4 hPa | 0 mm | - | 19 W/m² | - |
| 1778119472 | 17.78° C | 79% | 1015.2 hPa | 0 mm | - | 21 W/m² | - |
| 1778119169 | 17.78° C | 78% | 1015.4 hPa | 0 mm | - | 23 W/m² | - |
| 1778118867 | 18.33° C | 78% | 1015.2 hPa | 0 mm | - | 25 W/m² | - |
| 1778118564 | 18.33° C | 76% | 1015.4 hPa | 0 mm | - | 28 W/m² | - |
| 1778118260 | 18.89° C | 73% | 1014.9 hPa | 0 mm | - | 29 W/m² | - |
| 1778117957 | 18.89° C | 73% | 1015.1 hPa | 0 mm | - | 31 W/m² | - |
| 1778117655 | 18.89° C | 72% | 1015.1 hPa | 0 mm | - | 39 W/m² | - |
| 1778117352 | 18.89° C | 70% | 1015.4 hPa | 0 mm | - | 84 W/m² | - |
| 1778117048 | 19.44° C | 70% | 1015.2 hPa | 0 mm | - | 93 W/m² | - |
| 1778116745 | 19.44° C | 68% | 1015.3 hPa | 0 mm | - | 99 W/m² | - |
| 1778116441 | 20° C | 67% | 1015.3 hPa | 0 mm | - | 110 W/m² | - |
| 1778116136 | 19.44° C | 69% | 1015.3 hPa | 0 mm | - | 119 W/m² | - |
| 1778115832 | 19.44° C | 69% | 1015.1 hPa | 0 mm | - | 128 W/m² | - |
| 1778115529 | 20° C | 68% | 1015.5 hPa | 0 mm | - | 137 W/m² | - |
| 1778115225 | 20° C | 65% | 1015.5 hPa | 0 mm | - | 150 W/m² | - |
| 1778114922 | 19.44° C | 66% | 1015.4 hPa | 0 mm | - | 159 W/m² | - |
| 1778114619 | 20° C | 66% | 1015.4 hPa | 0 mm | - | 175 W/m² | - |
| 1778114316 | 19.44° C | 67% | 1015.4 hPa | 0 mm | - | 192 W/m² | - |
| 1778114011 | 20° C | 66% | 1015.2 hPa | 0 mm | - | 206 W/m² | - |
| 1778113706 | 20° C | 66% | 1015.3 hPa | 0 mm | - | 217 W/m² | - |
| 1778113403 | 19.44° C | 66% | 1015.4 hPa | 0 mm | - | 229 W/m² | - |
| 1778113101 | 20° C | 65% | 1015.5 hPa | 0 mm | - | 248 W/m² | - |
| 1778112798 | 20° C | 65% | 1015.3 hPa | 0 mm | - | 260 W/m² | - |
| 1778112494 | 20.56° C | 63% | 1015.4 hPa | 0 mm | - | 268 W/m² | - |
* Rain latest hour (hover to see other rain measurements)
** Current wind speed in m/s (hover to see current wind gust speed)